This is the latest recevied weather packets stored in our database for station/object W0VI. If no packets are shown the sender has not sent any weather packets the latest 10 day(s).
| Time | Temp. | Humidity | Pressure | Rain* | Wind** | Luminosity | Snow |
|---|---|---|---|---|---|---|---|
| 1777780078 | 15° C | 49% | 1008.2 hPa | 0 mm | - | 0 W/m² | - |
| 1777779775 | 15° C | 50% | 1008.3 hPa | 0 mm | - | 0 W/m² | - |
| 1777779472 | 15.56° C | 48% | 1008.5 hPa | 0 mm | - | 0 W/m² | - |
| 1777779170 | 15.56° C | 51% | 1008.6 hPa | 0 mm | - | 0 W/m² | - |
| 1777778868 | 15.56° C | 49% | 1008.7 hPa | 0 mm | - | 0 W/m² | - |
| 1777778566 | 15.56° C | 47% | 1008.7 hPa | 0 mm | - | 0 W/m² | - |
| 1777778263 | 15.56° C | 49% | 1008.9 hPa | 0 mm | - | 0 W/m² | - |
| 1777777961 | 15.56° C | 49% | 1008.7 hPa | 0 mm | - | 0 W/m² | - |
| 1777777657 | 15° C | 49% | 1009.1 hPa | 0 mm | - | 0 W/m² | - |
| 1777777354 | 15° C | 52% | 1009.2 hPa | 0 mm | - | 0 W/m² | - |
| 1777777050 | 15° C | 52% | 1009.2 hPa | 0 mm | - | 0 W/m² | - |
| 1777776748 | 15° C | 55% | 1009.2 hPa | 0 mm | - | 0 W/m² | - |
| 1777776444 | 15° C | 54% | 1009.6 hPa | 0 mm | - | 0 W/m² | - |
| 1777776142 | 15° C | 48% | 1009.6 hPa | 0 mm | - | 0 W/m² | - |
| 1777775838 | 15° C | 53% | 1009.4 hPa | 0 mm | - | 0 W/m² | - |
| 1777775535 | 15° C | 50% | 1009.5 hPa | 0 mm | - | 0 W/m² | - |
| 1777775232 | 15° C | 51% | 1009.5 hPa | 0 mm | - | 0 W/m² | - |
| 1777774931 | 15.56° C | 47% | 1010 hPa | 0 mm | - | 0 W/m² | - |
| 1777774628 | 15.56° C | 49% | 1010.2 hPa | 0 mm | - | 0 W/m² | - |
| 1777774324 | 15.56° C | 48% | 1010.3 hPa | 0 mm | - | 0 W/m² | - |
| 1777774022 | 15.56° C | 47% | 1010 hPa | 0 mm | - | 0 W/m² | - |
| 1777773719 | 16.11° C | 46% | 1010 hPa | 0 mm | - | 0 W/m² | - |
| 1777773416 | 16.11° C | 45% | 1010 hPa | 0 mm | - | 0 W/m² | - |
| 1777773113 | 16.11° C | 45% | 1010 hPa | 0 mm | - | 0 W/m² | - |
| 1777772809 | 16.67° C | 43% | 1010.3 hPa | 0 mm | - | 0 W/m² | - |
* Rain latest hour (hover to see other rain measurements)
** Current wind speed in m/s (hover to see current wind gust speed)